{"data":{"norad_id":54784,"epoch":"2026-05-25T03:19:41.736864Z","epoch_age_seconds":62791,"freshness":"FRESH","line1":"1 54784U 22175AC  26145.13867751 -.00001477  00000+0 -74706-4 0  9999","line2":"2 54784  53.2125  60.6864 0001454 105.8767 254.2386 15.08847790191466","mean_motion":15.0884779,"eccentricity":0.0001454,"inclination_deg":53.2125,"raan_deg":60.6864,"arg_perigee_deg":105.8767,"mean_anomaly_deg":254.2386,"bstar":-7.4706e-5,"rev_number":19146,"period_min":95.437061945128,"perigee_km":538.71372180652,"apogee_km":540.72543449945,"semimajor_km":6917.856578153,"source":"CELESTRAK","updated_at":"2026-05-25T13:38:17.693325Z"}}